Regional Weather Roundup
Issued by NWS

Home | Current Version | Previous Version | Text Only | Print | Product List | Glossary Off
Versions: 1 2 3 4 5 6 7 8 9 10 11 12 13 14 15 16 17 18 19 20 21 22 23 24 25 26 27 28 29 30 31 32 33 34 35 36 37 38 39 40 41 42 43 44 45 46 47 48 49 50

000
ASUS45 KBOU 020310
RWRCO

WEATHER ROUNDUP FOR COLORADO
NATIONAL WEATHER SERVICE DENVER/BOULDER CO
900 PM MDT SAT AUG 01 2015

NOTE: "FAIR" INDICATES FEW OR NO CLOUDS BELOW 12000 FEET WITH NO
SIGNIFICANT WEATHER AND/OR OBSTRUCTIONS TO VISIBILITY.

COZ001>005-013-030-031-020400-
...NORTHWEST COLORADO...

CITY           SKY/WX    TMP DP  RH WIND       PRES   REMARKS
CRAIG          CLOUDY    71  45  39 NW6       30.14S
HAYDEN         CLOUDY    73  41  31 E5        30.17S
MEEKER         CLOUDY    71  45  39 CALM      30.18R
MOUNT WERNER   NOT AVBL
STEAMBOAT SPGS CLOUDY    69  40  34 CALM      30.19R
WALDEN         CLOUDY    68  32  26 NE5       30.30R
$$

COZ006>008-011-020400-
...WEST CENTRAL VALLEYS...

CITY           SKY/WX    TMP DP  RH WIND       PRES   REMARKS
GRAND JUNCTION MOCLDY    80  46  30 SE15      30.08R
MONTROSE       LGT RAIN  65  56  72 S18       30.21R
EAGLE          CLOUDY    77  41  27 SW13      30.19R
RIFLE          CLOUDY    80  45  28 S12       30.11F
DELTA          CLOUDY    78  49  35 SE12G17   30.17R
NUCLA          DRIZZLE   63  57  82 SE15      30.27R
$$

COZ017>023-064>068-020400-
...SOUTHWEST COLORADO...

CITY           SKY/WX    TMP DP  RH WIND       PRES   REMARKS
DURANGO        MOCLDY    66  55  67 CALM      30.25R
CORTEZ         MOCLDY    69  62  78 S7        30.18R
PAGOSA SPRINGS MOCLDY    60  57  91 CALM      30.33R
TELLURIDE      CLOUDY    55  53  92 CALM      30.46S
WOLF CREEK PAS NOT AVBL
$$

COZ009-010-012-014-032>034-037-058>063-020400-
...CENTRAL COLORADO...

CITY           SKY/WX    TMP DP  RH WIND       PRES   REMARKS
ASPEN          CLOUDY    69  45  41 S9        30.29R
BUENA VISTA    CLOUDY    64  45  48 E13       30.33S
COPPER MTN     CLOUDY    59  34  38 S6        30.64S
BERTHOUD PASS  FAIR      50  37  62 E14       30.69S
COTTONWOOD PAS CLOUDY    61  39  44 CALM      30.47S
GUNNISON       CLOUDY    59  52  77 CALM      30.39R
KREMMLING      CLOUDY    72  30  21 SE6       30.24R
LEADVILLE      LGT RAIN  59  41  51 S12       30.46R
MONARCH PASS   CLOUDY    46  39  76 W13       30.73S
SALIDA         NOT AVBL
SUNLIGHT       CLOUDY    59  37  44 CALM      30.56S
WILKERSON PASS CLOUDY    54  37  54 S3        30.61R
$$

COZ069>075-020400-
...SAN LUIS VALLEY/SANGRE DE CRISTO MOUNTAINS...

CITY           SKY/WX    TMP DP  RH WIND       PRES   REMARKS
ALAMOSA        CLOUDY    59  50  72 E3        30.32R
LA VETA PASS   CLOUDY    52  41  66 W5        30.51S
SAGUACHE       CLOUDY    61  48  63 N3        30.36S
$$

COZ035-036-038>040-020400-
...NORTHERN COLORADO FRONT RANGE...

CITY           SKY/WX    TMP DP  RH WIND       PRES   REMARKS
DENVER INTL AP MOCLDY    76  49  38 S22G30    30.08R
DMNS CITY PARK   N/A     77  48  35 SE10G24   30.07R
AURORA         PTCLDY    73  51  44 S29G35    30.09S
FRONT RANGE AP MOCLDY    73  48  40 S17G30    30.11R
ERIE MUNI ARPT PTCLDY    76  45  32 CALM      30.03S
BOULDER MUN AP PTCLDY    73  48  40 N7        30.06R
CENTENNIAL     MOCLDY    72  50  45 S24G35    30.12R
BROOMFIELD     MOCLDY    79  45  29 VRB7      30.09R
FORT COLLINS   MOCLDY    79  46  31 NE7       30.04R
LONGMONT       MOCLDY    77  47  34 NW7       30.06R
$$

COZ041-046-047-076>085-087-088-020400-
...PIKES PEAK/PALMER DIVIDE AND SOUTHERN FOOTHILLS...

CITY           SKY/WX    TMP DP  RH WIND       PRES   REMARKS
COLO. SPRINGS  MOCLDY    68  51  54 SW13      30.23F
A. F. ACADEMY  MOCLDY    67  49  52 S13       30.24S
ELLICOTT       MOCLDY   N/A N/A N/A N7        30.23R
FALCON         MOCLDY    61  53  76 SW7       30.29R
FORT CARSON    MOCLDY    69  52  55 SW10      30.18F
LIMON          CLOUDY    69  50  50 SW10      30.14R
MONUMENT HILL  NOT AVBL
TRINIDAD       CLOUDY    66  56  70 SW17      30.18F
$$

COZ042>045-048>051-090-091-020400-
...NORTHEAST COLORADO...

CITY           SKY/WX    TMP DP  RH WIND       PRES   REMARKS
GREELEY ARPT   MOCLDY    73  54  49 SE7       30.04R
AKRON          MOCLDY    71  56  58 SE18G25   30.09R
BURLINGTON     CLOUDY    76  59  55 SE10      30.08R
WRAY           LGT RAIN  78  56  47 N18G41    30.07R
STERLING       MOCLDY    72  55  56 S7        30.04S
HOLYOKE        NOT AVBL
FORT MORGAN    MOCLDY    79  53  39 E12G21    30.07R
$$

COZ086-089-092>099-020400-
...SOUTHEAST COLORADO...

CITY           SKY/WX    TMP DP  RH WIND       PRES   REMARKS
PUEBLO         CLOUDY    71  62  73 SW7       30.12F
LA JUNTA       CLOUDY    78  54  43 NW12      30.05S
LAMAR          MOCLDY    82  65  56 SE9       30.00R
SPRINGFIELD      N/A     73  60  63 SW5       30.09R
$$


USA.gov is the U.S. government's official web portal to all federal, state and local government web resources and services.